SCP
0 0 0 0 0 0 0 0 0 0 0 0 0 0 0 0 0 0 0 0 0 0 0 0 0 0 0 0 0 0 0 0 0 0 0 0 0 0 0 0 0 0 0
0 0 0 0 0 0 0 0 0 0 0 0 0 0 0 0 0 0 0 0 0 0 0 0 0 0 0 0 0 0 0 0 0 0 0 0 0 0 0 0 0 0 0
0 0 0 0 0 0 0 0 0 0 0 0 0 0 0 0 0 0 0 0 0 0 0 0 0 0 0 0 0 0 0 0 0 0 0 0 0 0 0 0 0 0 0
0 0 0 0 0 0 0 0 0 0 0 0 0 0 0 0 0 0 0 0 0 0 0 0 0 0 0 0 0 0 0 0 0 0 0 0 0 0 0 0 0 0 0
0 0 0 0 0 0 0 0 0 0 0 0 0 0 0 0 0 0 0 0 0 0 0 0 0 0 0 0 0 0 0 0 0 0 0 0 0 0 0 0 0 0 0
0 0 0 0 0 0 0 0 0 0 0 0 0 0 0 0 0 0 0 0 0 0 0 0 0 0 0 0 0 0 0 0 0 0 0 0 0 0 0 0 0 0 0
0 0 0 0 0 0 0 0 0 0 0 0 0 0 0 0 0 0 0 0 0 0 0 0 0 0 0 0 0 0 0 0 0 0 0 0 0 0 0 0 0 0 0
0 0 0 0 0 0 0 0 0 0 0 0 0 0 0 0 0 0 0 0 0 0 0 0 0 0 0 0 0 0 0 0 0 0 0 0 0 0 0 0 0 0 0
0 0 0 0 0 0 0 0 0 0 0 0 0 0 0 0 0 0 0 0 0 0 0 0 0 0 0 0 0 0 0 0 0 0 0 0 0 0 0 0 0 0 0
0 0 0 0 0 0 0 0 0 0 0 0 0 0 0 0 0 0 0 0 0 0 0 0 0 0 0 0 0 0 0 0 0 0 0 0 0 0 0 0 0 0 0
0 0 0 0 0 0 0 0 0 0 0 0 0 0 0 0 0 0 0 0 0 0 0 0 0 0 0 0 0 0 0 0 0 0 0 0 0 0 0 0 0 0 0
0 0 0 0 0 0 0 0 0 0 0 0 0 0 0 0 0 0 0 0 0 0 0 0 0 0 0 0 0 0 0 0 0 0 0 0 0 0 0 0 0 0 0
0 0 0 0 0 0 0 0 0 0 0 0 0 0 0 0 0 0 0 0 0 0 0 0 0 0 0 0 0 0 0 0 0 0 0 0 0 0 0 0 0 0 0
0 0 0 0 0 0 0 0 0 0 0 0 0 0 0 0 0 0 0 0 0 0 0 0 0 0 0 0 0 0 0 0 0 0 0 0 0 0 0 0 0 0 0
0 0 0 0 0 0 0 0 0 0 0 0 0 0 0 0 0 0 0 0 0 0 0 0 0 0 0 0 0 0 0 0 0 0 0 0 0 0 0 0 0 0 0
0 0 0 0 0 0 0 0 0 0 0 0 0 0 0 0 0 0 0 0 0 0 0 0 0 0 0 0 0 0 0 0 0 0 0 0 0 0 0 0 0 0 0
0 0 0 0 0 0 0 0 0 0 0 0 0 0 0 0 0 0 0 0 0 0 0 0 0 0 0 0 0 0 0 0 0 0 0 0 0 0 0 0 0 0 0
0 0 0 0 0 0 0 0 0 0 0 0 0 0 0 0 0 0 0 0 0 0 0 0 0 0 0 0 0 0 0 0 0 0 0 0 0 0 0 0 0 0 0
0 0 0 0 0 0 0 0 0 0 0 0 0 0 0 0 0 0 0 0 0 0 0 0 0 0 0 0 0 0 0 0 0 0 0 0 0 0 0 0 0 0 0
0 0 0 0 0 0 0 0 0 0 0 0 0 0 0 0 0 0 0 0 0 0 0 0 0 0 0 0 0 0 0 0 0 0 0 0 0 0 0 0 0 0 0
0 0 0 0 0 0 0 0 0 0 0 0 0 0 0 0 0 0 0 0 0 0 0 0 0 0 0 0 0 0 0 0 0 0 0 0 0 0 0 0 0 0 0
0 0 0 0 0 0 0 0 0 0 0 0 0 0 0 0 0 0 0 0 0 0 0 0 0 0 0 0 0 0 0 0 0 0 0 0 0 0 0 0 0 0 0
0 0 0 0 0 0 0 0 0 0 0 0 0 0 0 0 0 0 0 0 0 0 0 0 0 0 0 0 0 0 0 0 0 0 0 0 0 0 0 0 0 0 0
0 0 0 0 0 0 0 0 0 0 0 0 0 0 0 0 0 0 0 0 0 0 0 0 0 0 0 0 0 0 0 0 0 0 0 0 0 0 0 0 -0 0 0
0 0 0 0 0 0 0 0 0 0 0 0 0 0 0 0 0 0 0 0 0 0 0 0 0 0 0 0 0 0 0 0 0 0 0 0 0 0 0 -0 -0 0 0
0 0 0 0 0 0 0 0 0 0 0 0 0 0 0 0 0 0 0 0 0 0 0 0 0 0 0 0 0 0 0 0 0 0 0 0 0 0 -0 -0 -0 -0 -0
Wind_Speed_500mb
32 37 43 45 47 48 47 47 47 46 42 41 41 46 50 51 53 56 56 56 55 55 54 52 49 47 45 44 43 41 40 38 39 34 36 34 34 38 40 41 44 50 55
29 33 35 39 41 43 44 43 45 43 43 40 41 44 47 49 51 54 55 54 54 53 53 50 46 43 42 38 36 35 34 35 35 33 32 32 34 36 38 42 48 53 56
27 30 33 35 38 39 41 43 43 43 43 41 41 43 44 47 50 52 51 51 51 50 48 45 41 39 39 36 35 33 32 31 29 28 28 31 32 34 40 45 49 53 55
25 26 29 33 33 36 37 39 39 41 41 40 39 41 43 44 46 47 48 47 46 45 43 42 38 38 38 36 36 34 31 29 26 25 25 27 30 37 41 45 50 56 64
25 25 26 27 31 32 33 33 36 37 37 38 38 40 41 41 42 45 45 44 44 43 41 38 37 39 36 34 32 31 28 25 24 23 23 27 33 36 41 47 58 66 72
25 25 26 27 28 28 30 31 32 34 35 36 38 39 39 40 39 39 39 42 43 44 44 43 41 38 34 32 30 29 25 21 21 22 24 27 32 38 44 53 62 68 72
19 24 24 24 25 27 27 28 29 30 32 35 37 38 36 36 37 38 39 40 40 40 40 43 42 37 33 32 35 29 23 19 21 21 22 26 35 42 51 57 61 67 72
16 20 22 23 24 24 24 24 26 27 29 32 35 34 34 36 38 41 40 39 40 41 40 38 34 30 26 24 19 15 17 17 17 21 25 32 40 47 53 58 63 68 73
16 17 18 19 21 21 22 23 23 26 31 33 33 35 38 41 40 37 39 41 42 41 37 33 30 29 29 27 20 17 16 18 22 27 34 40 43 48 52 54 57 62 70
15 17 18 18 18 19 20 21 24 27 31 35 38 40 41 43 38 36 38 43 47 46 42 37 33 31 28 21 16 16 16 18 24 31 35 39 42 46 49 50 53 55 59
13 15 16 18 18 18 20 23 26 32 37 41 47 48 45 37 38 37 36 39 41 45 42 37 30 32 27 18 13 12 15 22 27 30 33 36 39 41 44 47 50 53 58
12 12 14 15 15 17 19 27 31 39 48 53 55 53 43 33 37 41 39 33 38 38 38 33 26 23 11 7 11 15 21 25 26 30 32 34 37 39 43 48 52 56 59
11 10 11 14 16 18 20 27 38 45 51 55 57 55 45 39 41 41 43 41 38 36 36 32 28 15 12 13 14 19 23 24 25 27 31 35 39 44 48 51 54 60 63
10 10 11 13 17 20 23 28 37 46 53 57 59 54 47 45 49 49 45 39 39 41 43 32 22 17 15 17 18 19 21 23 24 27 30 36 41 46 52 58 65 69 78
10 10 11 13 15 20 24 31 36 42 46 53 54 52 53 53 48 39 35 39 39 34 23 19 16 13 12 13 15 17 19 21 24 28 33 38 43 48 53 61 67 75 82
8 9 9 12 17 22 26 29 25 30 36 40 43 41 41 37 42 36 34 34 33 28 22 15 11 10 10 11 13 14 17 20 25 30 35 41 47 53 58 63 71 78 87
4 5 8 13 18 26 32 37 41 32 33 37 39 41 39 41 37 35 36 34 31 22 17 14 11 10 9 8 10 12 16 20 26 31 37 43 49 55 63 70 77 82 91
1 5 11 17 24 31 38 42 47 52 55 50 40 43 44 44 42 37 25 23 22 19 16 13 11 9 7 7 8 12 17 22 27 33 39 44 50 59 67 74 79 87 97
6 10 16 25 33 40 45 49 58 66 73 71 65 57 49 42 32 30 26 21 18 17 15 12 9 6 5 6 9 14 19 25 30 36 41 47 54 64 71 76 83 91 101
13 15 22 29 37 46 58 66 73 73 73 67 58 45 36 27 30 28 25 22 18 15 12 10 6 4 4 8 12 17 22 27 33 38 43 50 58 67 74 80 87 98 106
19 21 26 34 43 51 60 64 67 68 63 57 44 35 25 26 27 26 24 21 17 13 10 7 3 3 7 11 15 20 24 30 36 42 47 54 63 69 73 82 92 101 111
23 27 33 37 44 52 59 60 62 62 56 48 40 35 30 26 26 24 22 19 15 11 7 3 3 6 10 15 19 23 27 32 37 44 51 59 66 70 79 88 97 104 114
27 30 36 42 48 52 55 58 62 59 51 39 33 30 30 27 24 22 19 16 12 8 4 2 6 10 14 18 22 27 31 35 40 47 56 63 67 73 81 92 98 109 117
29 34 39 43 49 53 55 59 57 48 39 34 32 30 28 26 22 19 16 12 8 5 3 5 9 13 17 21 25 29 33 37 41 48 56 63 69 75 84 92 100 109 117
32 36 41 44 49 54 58 56 50 42 37 32 30 28 26 24 20 17 13 10 6 5 6 8 11 15 18 22 25 29 32 36 43 49 54 60 69 79 84 96 106 115 120
33 38 42 47 51 53 52 51 47 41 37 32 29 28 24 22 18 14 10 7 6 7 10 13 16 19 22 25 27 30 32 36 42 46 56 68 79 82 89 100 106 110 111
Wind_Direction_500mb
205 208 212 215 217 219 221 222 216 219 221 225 225 225 226 225 223 223 225 226 227 229 229 230 234 238 240 245 250 249 243 238 240 243 239 241 241 247 253 263 274 281 287
217 216 215 214 216 217 217 216 217 219 222 222 222 224 225 224 224 223 223 224 224 227 230 229 231 237 243 243 241 237 234 231 233 238 239 238 243 251 263 274 282 286 291
218 218 219 217 216 215 214 214 214 216 219 220 220 221 223 222 222 221 221 223 224 224 228 230 232 235 239 235 232 228 227 229 234 241 241 244 252 264 274 283 289 293 298
214 213 215 213 211 211 211 212 212 215 215 217 217 219 220 219 218 219 218 217 218 218 221 225 228 229 229 228 224 224 227 233 238 244 250 260 272 281 289 294 296 301 304
211 207 206 203 201 202 204 205 207 209 210 211 212 213 214 213 214 214 213 213 213 214 216 218 220 221 217 216 219 221 225 234 245 255 269 278 285 294 299 304 307 309 309
209 200 197 195 194 195 197 200 202 204 206 207 207 207 208 206 205 207 210 210 210 212 213 213 209 207 208 213 218 224 230 243 259 272 279 286 294 300 306 309 312 314 317
190 190 187 185 188 190 192 194 197 201 203 203 201 199 198 197 195 197 199 206 209 207 205 202 198 199 205 214 228 239 247 256 266 277 287 298 303 307 309 311 314 313 311
171 179 180 182 183 183 185 189 192 195 197 196 192 189 185 185 189 193 194 194 195 194 196 197 199 196 201 215 227 246 262 274 287 297 304 307 308 310 313 315 315 315 315
159 165 172 175 176 178 181 182 185 188 186 180 180 178 177 179 189 190 189 186 185 183 183 184 191 196 211 223 237 260 276 291 301 307 311 312 314 314 316 317 318 320 321
150 156 163 166 169 172 173 174 175 174 173 169 166 169 177 183 180 184 189 187 180 177 176 182 191 208 222 236 246 266 283 296 305 310 312 314 315 316 319 321 323 324 324
135 149 158 160 165 167 167 164 168 165 163 159 160 166 176 184 173 175 185 190 191 180 179 180 197 220 230 246 254 273 290 302 307 311 314 317 319 322 323 325 326 326 325
117 138 151 153 156 160 166 163 160 162 163 162 165 166 172 166 171 171 177 189 184 186 179 181 178 217 219 242 273 286 301 310 316 320 323 324 325 327 328 328 327 325 323
101 125 142 150 153 156 166 165 161 166 167 164 166 165 160 160 162 166 173 180 183 185 180 182 200 223 268 287 297 308 316 321 325 327 328 330 331 331 330 328 327 324 324
90 115 139 154 158 159 160 165 168 169 169 169 168 167 157 153 159 164 171 173 177 183 197 207 214 239 268 292 307 317 322 325 329 331 332 333 334 334 333 331 331 331 327
84 107 138 157 160 160 162 166 172 173 180 177 177 175 172 167 167 172 181 185 189 194 201 196 200 231 265 289 305 316 323 328 334 336 335 335 335 335 337 335 333 331 330
72 97 129 153 156 156 156 152 160 180 181 180 177 177 164 165 160 164 169 177 183 185 188 208 229 250 269 290 304 316 326 333 336 336 336 336 338 338 336 334 333 333 331
41 105 147 158 162 160 159 157 148 154 170 176 168 165 169 162 160 161 170 176 176 183 194 213 226 244 264 283 304 318 329 335 336 336 337 338 337 336 335 335 335 334 331
282 161 175 174 173 169 165 159 150 140 134 131 146 146 142 145 156 168 176 173 178 185 187 199 214 229 252 282 306 323 331 334 336 338 337 336 335 335 336 335 335 334 333
209 190 188 183 177 170 161 152 144 145 145 142 138 140 144 166 173 165 168 174 177 176 180 189 199 218 253 294 316 327 333 335 335 335 336 336 335 335 335 335 335 334 333
208 192 192 189 179 172 167 166 162 162 162 164 166 173 169 166 163 166 168 168 171 170 172 178 190 227 286 312 324 329 330 331 332 334 335 335 335 337 336 335 336 334 334
202 198 196 191 184 181 177 173 171 171 169 165 164 165 165 166 165 163 166 165 165 163 167 174 197 279 307 316 320 323 326 329 330 332 333 334 336 336 336 335 335 335 335
202 197 194 195 191 186 181 180 175 172 170 172 172 169 169 169 166 166 163 160 159 160 166 184 276 303 309 314 317 320 324 326 329 331 332 334 336 338 337 336 336 336 337
201 197 197 193 191 189 185 180 176 178 178 176 173 170 170 171 169 166 161 157 159 164 180 266 305 312 312 314 317 320 324 327 331 332 331 334 337 338 337 335 337 337 338
198 194 194 194 190 187 183 179 179 179 180 178 176 171 174 170 169 166 163 163 169 186 242 293 307 312 315 317 319 320 323 327 331 331 332 334 335 337 337 337 337 338 339
196 191 190 190 188 184 179 178 180 180 179 175 172 176 175 171 171 172 173 178 194 232 275 296 306 312 316 318 319 321 324 328 332 333 331 330 334 338 339 337 340 342 341
189 186 183 180 176 176 179 179 177 178 176 173 176 179 176 175 178 181 188 203 238 276 297 305 310 316 321 324 323 323 326 329 331 334 336 339 338 337 339 340 341 339 334
Wind_Speed_850mb
32 37 43 45 47 48 47 47 47 46 42 41 41 46 50 51 53 56 56 56 55 55 54 52 49 47 45 44 43 41 40 38 39 34 36 34 34 38 40 41 44 50 55
29 33 35 39 41 43 44 43 45 43 43 40 41 44 47 49 51 54 55 54 54 53 53 50 46 43 42 38 36 35 34 35 35 33 32 32 34 36 38 42 48 53 56
27 30 33 35 38 39 41 43 43 43 43 41 41 43 44 47 50 52 51 51 51 50 48 45 41 39 39 36 35 33 32 31 29 28 28 31 32 34 40 45 49 53 55
25 26 29 33 33 36 37 39 39 41 41 40 39 41 43 44 46 47 48 47 46 45 43 42 38 38 38 36 36 34 31 29 26 25 25 27 30 37 41 45 50 56 64
25 25 26 27 31 32 33 33 36 37 37 38 38 40 41 41 42 45 45 44 44 43 41 38 37 39 36 34 32 31 28 25 24 23 23 27 33 36 41 47 58 66 72
25 25 26 27 28 28 30 31 32 34 35 36 38 39 39 40 39 39 39 42 43 44 44 43 41 38 34 32 30 29 25 21 21 22 24 27 32 38 44 53 62 68 72
19 24 24 24 25 27 27 28 29 30 32 35 37 38 36 36 37 38 39 40 40 40 40 43 42 37 33 32 35 29 23 19 21 21 22 26 35 42 51 57 61 67 72
16 20 22 23 24 24 24 24 26 27 29 32 35 34 34 36 38 41 40 39 40 41 40 38 34 30 26 24 19 15 17 17 17 21 25 32 40 47 53 58 63 68 73
16 17 18 19 21 21 22 23 23 26 31 33 33 35 38 41 40 37 39 41 42 41 37 33 30 29 29 27 20 17 16 18 22 27 34 40 43 48 52 54 57 62 70
15 17 18 18 18 19 20 21 24 27 31 35 38 40 41 43 38 36 38 43 47 46 42 37 33 31 28 21 16 16 16 18 24 31 35 39 42 46 49 50 53 55 59
13 15 16 18 18 18 20 23 26 32 37 41 47 48 45 37 38 37 36 39 41 45 42 37 30 32 27 18 13 12 15 22 27 30 33 36 39 41 44 47 50 53 58
12 12 14 15 15 17 19 27 31 39 48 53 55 53 43 33 37 41 39 33 38 38 38 33 26 23 11 7 11 15 21 25 26 30 32 34 37 39 43 48 52 56 59
11 10 11 14 16 18 20 27 38 45 51 55 57 55 45 39 41 41 43 41 38 36 36 32 28 15 12 13 14 19 23 24 25 27 31 35 39 44 48 51 54 60 63
10 10 11 13 17 20 23 28 37 46 53 57 59 54 47 45 49 49 45 39 39 41 43 32 22 17 15 17 18 19 21 23 24 27 30 36 41 46 52 58 65 69 78
10 10 11 13 15 20 24 31 36 42 46 53 54 52 53 53 48 39 35 39 39 34 23 19 16 13 12 13 15 17 19 21 24 28 33 38 43 48 53 61 67 75 82
8 9 9 12 17 22 26 29 25 30 36 40 43 41 41 37 42 36 34 34 33 28 22 15 11 10 10 11 13 14 17 20 25 30 35 41 47 53 58 63 71 78 87
4 5 8 13 18 26 32 37 41 32 33 37 39 41 39 41 37 35 36 34 31 22 17 14 11 10 9 8 10 12 16 20 26 31 37 43 49 55 63 70 77 82 91
1 5 11 17 24 31 38 42 47 52 55 50 40 43 44 44 42 37 25 23 22 19 16 13 11 9 7 7 8 12 17 22 27 33 39 44 50 59 67 74 79 87 97
6 10 16 25 33 40 45 49 58 66 73 71 65 57 49 42 32 30 26 21 18 17 15 12 9 6 5 6 9 14 19 25 30 36 41 47 54 64 71 76 83 91 101
13 15 22 29 37 46 58 66 73 73 73 67 58 45 36 27 30 28 25 22 18 15 12 10 6 4 4 8 12 17 22 27 33 38 43 50 58 67 74 80 87 98 106
19 21 26 34 43 51 60 64 67 68 63 57 44 35 25 26 27 26 24 21 17 13 10 7 3 3 7 11 15 20 24 30 36 42 47 54 63 69 73 82 92 101 111
23 27 33 37 44 52 59 60 62 62 56 48 40 35 30 26 26 24 22 19 15 11 7 3 3 6 10 15 19 23 27 32 37 44 51 59 66 70 79 88 97 104 114
27 30 36 42 48 52 55 58 62 59 51 39 33 30 30 27 24 22 19 16 12 8 4 2 6 10 14 18 22 27 31 35 40 47 56 63 67 73 81 92 98 109 117
29 34 39 43 49 53 55 59 57 48 39 34 32 30 28 26 22 19 16 12 8 5 3 5 9 13 17 21 25 29 33 37 41 48 56 63 69 75 84 92 100 109 117
32 36 41 44 49 54 58 56 50 42 37 32 30 28 26 24 20 17 13 10 6 5 6 8 11 15 18 22 25 29 32 36 43 49 54 60 69 79 84 96 106 115 120
33 38 42 47 51 53 52 51 47 41 37 32 29 28 24 22 18 14 10 7 6 7 10 13 16 19 22 25 27 30 32 36 42 46 56 68 79 82 89 100 106 110 111
Wind_Direction_850mb
205 208 212 215 217 219 221 222 216 219 221 225 225 225 226 225 223 223 225 226 227 229 229 230 234 238 240 245 250 249 243 238 240 243 239 241 241 247 253 263 274 281 287
217 216 215 214 216 217 217 216 217 219 222 222 222 224 225 224 224 223 223 224 224 227 230 229 231 237 243 243 241 237 234 231 233 238 239 238 243 251 263 274 282 286 291
218 218 219 217 216 215 214 214 214 216 219 220 220 221 223 222 222 221 221 223 224 224 228 230 232 235 239 235 232 228 227 229 234 241 241 244 252 264 274 283 289 293 298
214 213 215 213 211 211 211 212 212 215 215 217 217 219 220 219 218 219 218 217 218 218 221 225 228 229 229 228 224 224 227 233 238 244 250 260 272 281 289 294 296 301 304
211 207 206 203 201 202 204 205 207 209 210 211 212 213 214 213 214 214 213 213 213 214 216 218 220 221 217 216 219 221 225 234 245 255 269 278 285 294 299 304 307 309 309
209 200 197 195 194 195 197 200 202 204 206 207 207 207 208 206 205 207 210 210 210 212 213 213 209 207 208 213 218 224 230 243 259 272 279 286 294 300 306 309 312 314 317
190 190 187 185 188 190 192 194 197 201 203 203 201 199 198 197 195 197 199 206 209 207 205 202 198 199 205 214 228 239 247 256 266 277 287 298 303 307 309 311 314 313 311
171 179 180 182 183 183 185 189 192 195 197 196 192 189 185 185 189 193 194 194 195 194 196 197 199 196 201 215 227 246 262 274 287 297 304 307 308 310 313 315 315 315 315
159 165 172 175 176 178 181 182 185 188 186 180 180 178 177 179 189 190 189 186 185 183 183 184 191 196 211 223 237 260 276 291 301 307 311 312 314 314 316 317 318 320 321
150 156 163 166 169 172 173 174 175 174 173 169 166 169 177 183 180 184 189 187 180 177 176 182 191 208 222 236 246 266 283 296 305 310 312 314 315 316 319 321 323 324 324
135 149 158 160 165 167 167 164 168 165 163 159 160 166 176 184 173 175 185 190 191 180 179 180 197 220 230 246 254 273 290 302 307 311 314 317 319 322 323 325 326 326 325
117 138 151 153 156 160 166 163 160 162 163 162 165 166 172 166 171 171 177 189 184 186 179 181 178 217 219 242 273 286 301 310 316 320 323 324 325 327 328 328 327 325 323
101 125 142 150 153 156 166 165 161 166 167 164 166 165 160 160 162 166 173 180 183 185 180 182 200 223 268 287 297 308 316 321 325 327 328 330 331 331 330 328 327 324 324
90 115 139 154 158 159 160 165 168 169 169 169 168 167 157 153 159 164 171 173 177 183 197 207 214 239 268 292 307 317 322 325 329 331 332 333 334 334 333 331 331 331 327
84 107 138 157 160 160 162 166 172 173 180 177 177 175 172 167 167 172 181 185 189 194 201 196 200 231 265 289 305 316 323 328 334 336 335 335 335 335 337 335 333 331 330
72 97 129 153 156 156 156 152 160 180 181 180 177 177 164 165 160 164 169 177 183 185 188 208 229 250 269 290 304 316 326 333 336 336 336 336 338 338 336 334 333 333 331
41 105 147 158 162 160 159 157 148 154 170 176 168 165 169 162 160 161 170 176 176 183 194 213 226 244 264 283 304 318 329 335 336 336 337 338 337 336 335 335 335 334 331
282 161 175 174 173 169 165 159 150 140 134 131 146 146 142 145 156 168 176 173 178 185 187 199 214 229 252 282 306 323 331 334 336 338 337 336 335 335 336 335 335 334 333
209 190 188 183 177 170 161 152 144 145 145 142 138 140 144 166 173 165 168 174 177 176 180 189 199 218 253 294 316 327 333 335 335 335 336 336 335 335 335 335 335 334 333
208 192 192 189 179 172 167 166 162 162 162 164 166 173 169 166 163 166 168 168 171 170 172 178 190 227 286 312 324 329 330 331 332 334 335 335 335 337 336 335 336 334 334
202 198 196 191 184 181 177 173 171 171 169 165 164 165 165 166 165 163 166 165 165 163 167 174 197 279 307 316 320 323 326 329 330 332 333 334 336 336 336 335 335 335 335
202 197 194 195 191 186 181 180 175 172 170 172 172 169 169 169 166 166 163 160 159 160 166 184 276 303 309 314 317 320 324 326 329 331 332 334 336 338 337 336 336 336 337
201 197 197 193 191 189 185 180 176 178 178 176 173 170 170 171 169 166 161 157 159 164 180 266 305 312 312 314 317 320 324 327 331 332 331 334 337 338 337 335 337 337 338
198 194 194 194 190 187 183 179 179 179 180 178 176 171 174 170 169 166 163 163 169 186 242 293 307 312 315 317 319 320 323 327 331 331 332 334 335 337 337 337 337 338 339
196 191 190 190 188 184 179 178 180 180 179 175 172 176 175 171 171 172 173 178 194 232 275 296 306 312 316 318 319 321 324 328 332 333 331 330 334 338 339 337 340 342 341
189 186 183 180 176 176 179 179 177 178 176 173 176 179 176 175 178 181 188 203 238 276 297 305 310 316 321 324 323 323 326 329 331 334 336 339 338 337 339 340 341 339 334